TimeCDT,TemperatureF,Dew PointF,Humidity,Sea Level PressureIn,VisibilityMPH,Wind Direction,Wind SpeedMPH,Gust SpeedMPH,PrecipitationIn,Events,Conditions,WindDirDegrees,DateUTC
2:58 AM,73.6,71.6,93,29.96,10.0,ENE,5.8,-,N/A,,Overcast,70,2013-08-17 07:58:00
3:38 AM,75.2,73.4,94,29.94,10.0,East,8.1,-,N/A,,Mostly Cloudy,80,2013-08-17 08:38:00
3:58 AM,74.3,72.3,94,29.95,10.0,NNE,5.8,-,0.00,,Scattered Clouds,30,2013-08-17 08:58:00
4:38 AM,73.4,71.6,94,29.93,10.0,NE,8.1,-,N/A,,Mostly Cloudy,40,2013-08-17 09:38:00
4:53 AM,73.4,71.6,94,29.93,10.0,NE,8.1,-,N/A,,Overcast,50,2013-08-17 09:53:00
4:58 AM,73.4,72.0,95,29.93,10.0,NE,8.1,-,N/A,,Overcast,50,2013-08-17 09:58:00
5:43 AM,73.4,71.6,94,29.93,10.0,NE,5.8,-,N/A,,Mostly Cloudy,40,2013-08-17 10:43:00
5:58 AM,72.9,71.4,95,29.94,10.0,NNE,6.9,-,N/A,,Mostly Cloudy,30,2013-08-17 10:58:00
6:03 AM,73.4,71.6,94,29.95,10.0,NE,5.8,-,N/A,,Mostly Cloudy,40,2013-08-17 11:03:00
6:08 AM,73.4,71.6,94,29.95,10.0,NE,6.9,-,N/A,,Mostly Cloudy,40,2013-08-17 11:08:00
6:23 AM,73.4,71.6,94,29.95,10.0,NE,9.2,-,N/A,,Overcast,50,2013-08-17 11:23:00
6:58 AM,72.9,71.4,95,29.96,8.0,NE,9.2,-,N/A,,Overcast,50,2013-08-17 11:58:00
7:03 AM,73.4,71.6,94,29.95,9.0,NE,9.2,-,N/A,,Overcast,50,2013-08-17 12:03:00
7:38 AM,73.4,71.6,94,29.97,10.0,East,10.4,-,N/A,,Overcast,90,2013-08-17 12:38:00
7:58 AM,74.5,72.7,94,29.97,10.0,ENE,10.4,-,N/A,,Overcast,70,2013-08-17 12:58:00
8:28 AM,75.2,73.4,94,29.98,10.0,NE,8.1,-,N/A,,Overcast,50,2013-08-17 13:28:00
8:58 AM,75.6,72.7,91,30.00,10.0,East,11.5,-,N/A,,Overcast,90,2013-08-17 13:58:00
9:40 AM,77.0,71.6,83,29.98,10.0,East,10.4,-,N/A,,Overcast,80,2013-08-17 14:40:00
9:45 AM,77.0,71.6,83,29.98,10.0,East,12.7,-,N/A,,Mostly Cloudy,90,2013-08-17 14:45:00
9:58 AM,77.0,71.6,83,29.99,10.0,East,11.5,-,N/A,,Mostly Cloudy,90,2013-08-17 14:58:00
10:55 AM,76.3,70.2,81,30.00,10.0,ENE,6.9,-,N/A,,Partly Cloudy,70,2013-08-17 15:55:00
11:58 AM,75.2,71.6,89,29.99,10.0,ENE,9.2,-,N/A,,Clear,70,2013-08-17 16:58:00
12:58 PM,76.5,70.2,81,30.01,10.0,ENE,10.4,-,N/A,,Mostly Cloudy,70,2013-08-17 17:58:00
1:08 PM,77.0,69.8,78,30.00,10.0,East,9.2,-,N/A,,Mostly Cloudy,90,2013-08-17 18:08:00
1:16 PM,77.0,69.8,78,30.01,10.0,ENE,8.1,-,N/A,,Scattered Clouds,70,2013-08-17 18:16:00
1:26 PM,77.0,69.8,78,30.00,10.0,East,9.2,-,N/A,,Mostly Cloudy,80,2013-08-17 18:26:00
1:55 PM,76.8,70.7,81,30.00,10.0,ENE,6.9,-,N/A,,Scattered Clouds,60,2013-08-17 18:55:00
2:58 PM,77.0,71.6,83,29.99,10.0,ENE,9.2,-,N/A,,Mostly Cloudy,70,2013-08-17 19:58:00
3:29 PM,77.0,71.6,83,29.97,10.0,ENE,9.2,-,N/A,,Overcast,70,2013-08-17 20:29:00
3:38 PM,77.0,71.6,83,29.97,10.0,ENE,8.1,-,N/A,Rain,Light Rain,60,2013-08-17 20:38:00
3:54 PM,77.0,71.6,83,29.97,10.0,ENE,9.2,-,N/A,,Overcast,70,2013-08-17 20:54:00
3:58 PM,76.5,72.5,87,29.99,10.0,ENE,8.1,-,0.00,,Overcast,60,2013-08-17 20:58:00
4:55 PM,77.2,71.4,82,29.98,10.0,ESE,9.2,-,N/A,,Mostly Cloudy,110,2013-08-17 21:55:00
6:58 PM,74.1,71.8,92,29.99,10.0,ENE,5.8,-,0.01,,Overcast,70,2013-08-17 23:58:00
7:10 PM,73.4,71.6,94,29.98,10.0,ENE,6.9,-,N/A,Rain,Light Rain,70,2013-08-18 00:10:00
7:15 PM,73.4,71.6,94,29.97,7.0,ENE,8.1,-,N/A,Rain,Light Rain,70,2013-08-18 00:15:00
7:30 PM,73.4,71.6,94,29.97,4.0,East,5.8,-,N/A,Rain,Light Rain,80,2013-08-18 00:30:00
7:38 PM,73.4,71.6,94,29.97,10.0,NE,4.6,-,N/A,,Overcast,50,2013-08-18 00:38:00
7:43 PM,73.4,71.6,94,29.97,10.0,NE,8.1,-,N/A,,Overcast,50,2013-08-18 00:43:00
7:48 PM,73.4,71.6,94,29.97,10.0,East,6.9,-,N/A,,Overcast,100,2013-08-18 00:48:00
7:58 PM,74.5,71.8,91,29.98,10.0,SSE,8.1,-,0.07,,Overcast,150,2013-08-18 00:58:00
8:39 PM,75.2,71.6,89,29.98,10.0,SSE,11.5,-,N/A,,Mostly Cloudy,160,2013-08-18 01:39:00
8:44 PM,77.0,71.6,83,29.98,10.0,SSE,10.4,-,N/A,,Overcast,160,2013-08-18 01:44:00
8:49 PM,77.0,71.6,83,29.98,10.0,SSE,9.2,-,N/A,,Overcast,150,2013-08-18 01:49:00
8:58 PM,76.3,71.6,85,29.98,10.0,SE,8.1,-,N/A,,Overcast,140,2013-08-18 01:58:00
9:18 PM,77.0,71.6,83,29.97,10.0,SE,10.4,-,N/A,,Overcast,130,2013-08-18 02:18:00
9:56 PM,77.0,71.6,83,29.98,10.0,SSE,11.5,-,N/A,Rain,Light Rain,150,2013-08-18 02:56:00
10:00 PM,75.2,71.6,89,29.98,10.0,SSE,12.7,-,N/A,,Overcast,150,2013-08-18 03:00:00
10:15 PM,75.2,71.6,89,29.98,10.0,SSE,10.4,-,N/A,,Overcast,150,2013-08-18 03:15:00
10:41 PM,75.2,71.6,89,29.97,10.0,SSE,10.4,-,N/A,,Overcast,150,2013-08-18 03:41:00
10:58 PM,75.2,71.6,89,29.97,10.0,ESE,9.2,-,0.00,,Overcast,120,2013-08-18 03:58:00
11:33 PM,75.2,71.6,89,29.97,7.0,East,8.1,-,N/A,Rain,Light Rain,100,2013-08-18 04:33:00
11:59 PM,74.1,72.3,94,29.97,10.0,ENE,5.8,-,0.14,,Overcast,70,2013-08-18 04:59:00